Погода в Таре

Погода в Таре : погода сейчас, прогноз погоды и архив. Всё, что Вы хотите узнать о погоде в Таре!

Хотите узнать прогноз погоды в Таре? Тогда Вам сюда: Погода в Таре

Поиск расширенной информации на нашем сайте:

Другие новости

Новости СМИ2

Главная страница сайта

Новости сайта

02.10.2013

Напоминаем, что на нашем новом сайте вы можете получить высокодетализированные прогнозы погоды по пунктам России, СНГ и мира (включающие важные для авиации метеовеличины, такие как направление и скорость ветра, видимость, явления погоды, количество и форма облачности, нижняя и верхняя граница облачности), а также ознакомиться с разнообразными материалами по авиационной метеорологии и подборкой полезных ссылок на эту тему.

Сайт Метеоцентр.Азия посвящён разработке технологий оптимизации авиаметеорологического обслуживания, включая проектирование и перспективное создание нескольких автоматизированных авиаметеорологических систем:
- система выпуска высокодетальных прогностических карт явлений погоды для нижнего воздушного пространства по России и ближнему зарубежью;
- система верификации прогнозов TAF (выпускаемых синоптиками официальных АМСГ РФ и ближнего зарубежья) и AUTOTAF (выпускаемых сайтом Метеоцентр.Азия) - выявление ошибок, онлайн-сопоставление с фактической погодой METAR, автоматическое внесение коррективов в прогнозы при резком отклонении фактической погоды от прогноза, подсчёт оправдываемости прогнозов по элементам и в целом;
- система обработки, анализа и отображения авиаметеорологической информации для применения провайдерами метеорологической информации.

Рекомендуем: планировка таунхаусов

Погода в Таре - сегодня

Время (UTC), дата Ветер
(°,м/с) 
Видим.   Явления Облачность Т
(°С)
Тd
(°С)
f(%) Тe
(°С)
Pmin
(гПа)
dP
(гПа)
Po
(мм)
O2
(г/м3)
Тmin Tmax R s Состояние
почвы
03 24.03.17 160 (Ю) 20000 м    3/0 верхняя 
[Ci fib]
-2.1 -13.2 42 -4  1027.2  -2.4  763  311  -5.5      66  неравномерный
сухой снег
100% 
06 24.03.17 170 (Ю) 20000 м    6/0 верхняя 
[Ci fib]
+1.7 -12.5 34 1024.8  -2.2  762  306           
09 24.03.17 150 (ЮВ) 20000 м    8/0 верхняя 
[Ci fib]
+5.2 -11.9 28 +4  1020.1  -4.5  758  301           
12 24.03.17 160 (Ю) 3{10}  20000 м    1/0 верхняя 
[Ci fib]
+4.2 -9.6 36 +3  1017.1  -3  756  301           
15 24.03.17 150 (ЮВ) 10 км    ясно 
-0.1 -8.8 52 -2  1014.7  -2.4  754  305    +5.6       
18 24.03.17 150 (ЮВ) 4000 м  слаб. снег  9/9 1200 м 
[Sc]
-1.9 -7.5 65 -3  1012.6  -2.2  752  306           
21 24.03.17 190 (Ю) 10 км  {снег}  9/9 1320 м 
[Sc]
-2 -6.6 71 -3  1010.6  -2  751  306           
00 25.03.17 230 (ЮЗ) 10 км  {снег}  10/10 960 м 
[Sc]
-2.7 -6.9 73 -4  1009.7  -0.9  750  306           
03 25.03.17 250 (З) 20000 м    10/0 верхняя 
[Ci sp]
-2.6 -7.3 70 -5  1009.8  -0.1  750  306  -2.9    0.0  64  неравномерный
сухой снег
100% 
06 25.03.17 270 (З) 20000 м    9/0 верхняя 
[Ci fib]
+0.7 -7.5 54 -1  1010.8  1.1  751  303           
09 25.03.17 270 (З) 20000 м    10/0 верхняя 
[Cc]
+3.1 -6.5 49 +1  1012.4  1.6  752  300           
12 25.03.17 290 (З) 20000 м    8/3 600 м средняя, верхняя 
[Cu med, cong|Ac lent|Ci sp]
+3.5 -5.3 52 +2  1015.3  2.9  755  301           
15 25.03.17 230 (ЮЗ) 10 км    1/0 средняя 
[Ac lent]
+0.6 -6 61 1017.8  2.4  756  305    +3.7       
18 25.03.17 230 (ЮЗ) 10 км    ясно 
-1.4 -6 71 -1  1019.4  1.5  758  307           
21 25.03.17 170 (Ю) 10 км    ясно 
-6.7 -8.2 89 -6  1021.2  1.6  759  314           
00 26.03.17 170 (Ю) 10 км    ясно 
-5.9 -7.1 91 -7  1022  0.8  759  314           
03 26.03.17 170 (Ю) 20000 м    10/0 верхняя 
[Ci fib]
-4.3 -6.8 83 -7  1022  -0.1  759  312  -7.2      63  неравномерный
сухой снег
100% 
06 26.03.17 200 (Ю) 20000 м    3/0 верхняя 
[Ci fib]
+2 -6.2 55 -1  1021.4  -0.4  759  304           
09 26.03.17 190 (Ю) 6-10{11}  20000 м    10/0 средняя, верхняя 
[Ac lent|Ci fib]
+2.9 -6.5 50 1019.3  -2  758  303           
12 26.03.17 180 (Ю) 3{10}  20000 м    10/0 верхняя 
[Cs]
+2.7 -6.2 52 +1  1016.9  -2.4  756  302           
15 26.03.17 170 (Ю) 10 км    9/0 средняя 
[Ac As]
-0.2 -5.1 69 -1  1015.4  -1.6  755  305    +3.3       
18 26.03.17 170 (Ю) 10 км    9/0 средняя 
[Ac As]
-1.7 -5 78 -3  1013.7  -1.7  753  306           
21 26.03.17 170 (Ю) 10 км    10/0 средняя 
[As trans]
-3.7 -5.5 87 -5  1012.4  -1.3  752  308           
00 27.03.17 170 (Ю) 10 км    9/0 средняя 
[Ac As]
-3.9 -5.1 91 -6  1011.5  -0.9  752  308           
03 27.03.17 190 (Ю) 4000 м  снежные зёрна  10/10 150 м 
[St]
-3.2 -4.8 89 -5  1011.3  -0.2  752  307  -4.2    0.0  63  неравномерный
сухой снег
100% 
Время (UTC), дата Ветер
(°,м/с) 
Видим.   Явления Облачность Т
(°С)
Тd
(°С)
f(%) Тe
(°С)
Pmin
(гПа)
dP
(гПа)
Po
(мм)
O2
(г/м3)
Тmin Tmax R s Состояние
почвы

Для получения пояснительной информации подведите курсор к названию столбца.

ПОГОДА в Таре - архив

Всё, что Вы хотите узнать о погоде в Таре - удобно и подробно!

Выберите нужную дату (начиная с 1 января 2015* года) и нажмите кнопку "Найти".
Будут отображены архивные сводки погоды по пункту Тара, начиная с указанной даты.


Отображать данные в формате CSV (для использования в таблицах Excel)


Внимание! Наш архив погоды предназначен исключительно для личного некоммерческого использования в познавательных целях. Если Вам необходимы официальные справки о состоянии погоды (для производственных, юридических, коммерческих и т.п. целей), обращайтесь в органы Росгидромета.

*Примечание: данная дата относится к архиву по метеостанциям СССР (Россия, СНГ, Балтия).
Архив по метеостанциям Зарубежной Европы и Азии (кроме Китая) хранится 10 дней, по другим регионам земного шара (Китай, Африка, Америка, Австралия, Океания) - 1 день.

Тара - район местоположения метеостанции


Название, широта, долгота, высота метеостанции:
Тара 56.9°ш. 74.4°д. 73 м над ур. моря [Российская Федерация]

Дополнительная информация

В oтличие oт бoльшинства пoгoдных сайтoв мы публикуем пoдрoбную метеoинфoрмацию в детальнoм прoфессиoнальнoм фoрмате.

Характеристики температуры и влажнoсти вoздуха измеряются на высoте 2 м в тени вдали oт зданий и деревьев.
Скoрoсть ветра измеряется на высoте 10 м (на урoвне рoста челoвека скoрoсть ветра ниже в 1.5-2 раза). Если метеoстанция нахoдится в гoрoде или в лесу, тo скoрoсть ветра занижена на 2-4 м/с пo сравнению с oткрытым местoм. Скoрoсть ветра над акватoриями крупных рек и oзёр, а также на вершинах хoлмoв на 2-5 м/с выше, чем в oбычных услoвиях.
Атмoсфернoе давление в разных тoчках местнoсти мoжет значительнo oтличаться oт давления на метеoстанции, в зависимoсти oт услoвий рельефа (при пoдъёме на 10 м давление пoнижается примернo на 1 мм рт.ст.).